EW6434 Weather Reports


Display with metric or nautical units.
time (UTC)temp
F
wind
direction
speed
MPH
gust
MPH
rain 1hr
in
rain 24hr
in
rain mn
in
humidity
%
barometer
mb
20260508013015 51 191 0.0 3.0 0.00 0.00 0.00 37 1016.2
20260508011518 52 176 0.0 5.0 0.00 0.00 0.00 35 1016.1
20260508010023 55 147 0.0 5.0 0.00 0.00 0.00 30 1016.0
20260508004520 57 146 2.0 8.0 0.00 0.00 0.00 28 1016.1
20260508003033 58 236 2.0 7.0 0.00 0.00 0.00 27 1016.3
20260508001509 59 153 3.0 7.0 0.00 0.00 0.00 25 1016.3
20260508000009 60 190 2.0 6.0 0.00 0.00 0.00 26 1016.5
20260507234506 59 213 2.0 6.0 0.00 0.00 0.00 25 1016.6
20260507233006 58 169 2.0 5.0 0.00 0.00 0.00 27 1016.8
20260507231504 61 235 3.0 8.0 0.00 0.00 0.00 25 1016.8
20260507230004 59 190 1.0 8.0 0.00 0.00 0.00 26 1016.9
20260507224505 61 187 2.0 7.0 0.00 0.00 0.00 23 1017.1
20260507223001 61 212 2.0 8.0 0.00 0.00 0.00 22 1017.0
20260507221559 61 225 2.0 10.0 0.00 0.00 0.00 21 1017.2
20260507220058 59 252 1.0 8.0 0.00 0.00 0.00 22 1017.4
20260507214603 60 262 1.0 8.0 0.00 0.04 0.00 23 1017.6
20260507213054 59 136 2.0 7.0 0.00 0.04 0.00 22 1018.0
20260507211615 60 217 2.0 6.0 0.00 0.04 0.00 26 1018.3
20260507210053 60 221 3.0 6.0 0.00 0.04 0.00 24 1018.7
20260507204556 61 259 1.0 4.0 0.00 0.17 0.00 24 1018.9
20260507203044 59 217 2.0 8.0 0.00 0.17 0.00 24 1019.3
20260507201541 59 280 1.0 5.0 0.00 0.17 0.00 23 1019.6
20260507200039 59 217 2.0 8.0 0.00 0.17 0.00 25 1020.0
20260507194539 59 214 3.0 12.0 0.00 0.30 0.00 23 1020.2
20260507193036 58 166 2.0 7.0 0.00 0.30 0.00 22 1020.6
20260507191533 58 270 4.0 8.0 0.00 0.30 0.00 22 1020.8
20260507190035 58 268 0.0 4.0 0.00 0.30 0.00 22 1021.2
20260507184527 58 304 1.0 6.0 0.00 0.30 0.00 21 1021.4
20260507183027 56 158 1.0 5.0 0.00 0.30 0.00 22 1021.8
20260507181522 57 142 1.0 8.0 0.00 0.30 0.00 23 1021.9
20260507180021 56 162 1.0 6.0 0.00 0.30 0.00 25 1022.5
20260507174517 55 252 1.0 7.0 0.00 0.30 0.00 21 1022.6
20260507173016 55 221 0.0 5.0 0.00 0.30 0.00 22 1022.7
20260507171512 53 200 0.0 4.0 0.00 0.30 0.00 19 1023.1
20260507170009 52 205 0.0 3.0 0.00 0.30 0.00 22 1023.4
20260507164505 50 196 0.0 2.0 0.00 0.30 0.00 23 1023.7
20260507163003 49 269 0.0 3.0 0.00 0.30 0.00 18 1024.0
20260507161601 46 248 0.0 0.0 0.00 0.30 0.00 23 1024.4
20260507160100 45 136 0.0 0.0 0.00 0.30 0.00 26 1024.7
20260507154551 42 108 0.0 0.0 0.00 0.30 0.00 28 1025.0
20260507153047 38 267 0.0 0.0 0.00 0.30 0.00 34 1025.1
20260507151545 34 267 0.0 0.0 0.00 0.30 0.00 45 1025.3
20260507150038 32 267 0.0 0.0 0.00 0.30 0.00 47 1025.4
20260507144536 28 267 0.0 0.0 0.00 0.30 0.00 52 1025.7
20260507143034 26 267 0.0 0.0 0.00 0.30 0.00 59 1025.8
20260507141536 24 267 0.0 0.0 0.00 0.30 0.00 65 1025.7
20260507140031 22 267 0.0 0.0 0.00 0.30 0.00 68 1025.7
20260507134530 21 267 0.0 0.0 0.00 0.30 0.00 75 1025.6
20260507133028 20 267 0.0 0.0 0.00 0.30 0.00 79 1025.5
20260507131535 19 267 0.0 0.0 0.00 0.30 0.00 78 1025.3
20260507130026 19 267 0.0 0.0 0.00 0.30 0.00 78 1025.3
20260507124526 19 267 0.0 0.0 0.00 0.30 0.00 79 1025.2
20260507123027 19 267 0.0 0.0 0.00 0.30 0.00 78 1025.1
20260507121522 19 267 0.0 0.0 0.00 0.30 0.00 80 1025.0
20260507120021 19 267 0.0 0.0 0.00 0.30 0.00 78 1025.0
20260507114518 19 267 0.0 0.0 0.00 0.30 0.00 77 1024.8
20260507113016 20 267 0.0 0.0 0.00 0.30 0.00 77 1024.6
20260507111515 20 267 0.0 0.0 0.00 0.30 0.00 76 1024.5
20260507110015 20 267 0.0 0.0 0.00 0.30 0.00 76 1024.1
20260507104511 21 267 0.0 0.0 0.00 0.30 0.00 75 1023.9
20260507103010 21 275 0.0 0.0 0.00 0.30 0.00 74 1023.9
20260507101510 21 275 0.0 0.0 0.00 0.30 0.00 74 1023.9
20260507100013 22 286 0.0 0.0 0.00 0.30 0.00 73 1023.5
20260507094505 22 276 0.0 0.0 0.00 0.30 0.00 73 1023.4
20260507093002 22 259 0.0 1.0 0.00 0.30 0.00 72 1023.4
20260507091606 23 27 0.0 1.0 0.00 0.30 0.00 73 1023.2
20260507090113 24 235 0.0 1.0 0.00 0.30 0.00 72 1022.9
20260507084559 23 255 0.0 1.0 0.00 0.30 0.00 72 1023.0
20260507083101 24 240 0.0 1.0 0.00 0.30 0.00 69 1022.9
20260507081557 24 243 0.0 2.0 0.00 0.30 0.00 70 1022.9
20260507080051 24 248 0.0 2.0 0.00 0.30 0.00 72 1023.0
20260507074548 26 258 0.0 1.0 0.00 0.30 0.00 68 1023.1
20260507073057 28 80 0.0 3.0 0.00 0.30 0.00 57 1022.8
20260507071543 27 74 0.0 1.0 0.00 0.30 0.00 60 1022.5
20260507070105 26 68 0.0 0.0 0.00 0.30 0.00 63 1022.6
20260507064543 27 68 0.0 2.0 0.00 0.30 0.00 61 1022.4
20260507063038 27 65 0.0 2.0 0.00 0.30 0.00 64 1022.5
20260507061535 28 70 0.0 2.0 0.00 0.30 0.00 61 1022.4
20260507060032 29 44 0.0 3.0 0.00 0.30 0.00 60 1022.4
20260507054529 28 98 0.0 3.0 0.00 0.30 0.30 62 1022.2
20260507053027 28 77 0.0 0.0 0.00 0.30 0.30 61 1021.9
20260507051525 27 65 0.0 0.0 0.00 0.30 0.30 65 1021.7
20260507050031 27 245 0.0 0.0 0.00 0.30 0.30 64 1021.4
20260507044538 27 94 0.0 0.0 0.00 0.30 0.30 64 1021.1
20260507043019 27 243 0.0 0.0 0.00 0.30 0.30 66 1021.0
20260507041517 27 243 0.0 0.0 0.00 0.30 0.30 67 1020.9
20260507040017 28 243 0.0 0.0 0.00 0.30 0.30 63 1020.5
20260507034512 28 243 0.0 0.0 0.00 0.30 0.30 64 1020.0
20260507033010 29 94 0.0 0.0 0.00 0.30 0.30 63 1019.9
20260507031506 30 94 0.0 1.0 0.00 0.30 0.30 62 1019.6
20260507030005 31 78 0.0 1.0 0.00 0.30 0.30 60 1019.2
20260507024501 33 101 0.0 1.0 0.00 0.30 0.30 52 1018.8
20260507023059 33 56 0.0 2.0 0.00 0.30 0.30 48 1018.5
20260507021616 33 75 0.0 4.0 0.00 0.30 0.30 52 1018.0
20260507020104 34 61 0.0 3.0 0.00 0.30 0.30 50 1017.6
20260507014611 34 18 0.0 4.0 0.00 0.30 0.30 51 1017.3